Change the Weather History Date:

Sunday, November 4, 2012

  Actual Average Record
Temperature  
Mean Temperature 55 °F 46 °F  
Max Temperature 59 °F 53 °F 65 °F (1976)
Min Temperature 50 °F 40 °F 24 °F (2003)
Degree Days  
Heating Degree Days 10 19  
Month to date heating degree days 74  
Since 1 July heating degree days 1164  
Cooling Degree Days 0 0  
Month to date cooling degree days 0  
Year to date cooling degree days 19  
Growing Degree Days 5 (Base 50)    
Moisture  
Dew Point 53 °F    
Average Humidity 92    
Maximum Humidity 97    
Minimum Humidity 86    
Precipitation  
Precipitation 1.17 in 0.49 in 1.82 in (1969)
Month to date precipitation 1.90  
Year to date precipitation 72.93  
Sea Level Pressure  
Sea Level Pressure 30.17 in    
Wind  
Wind Speed 8 mph (SSE)    
Max Wind Speed 21 mph    
Max Gust Speed 33 mph    
Visibility 2 miles    
Events Fog , Rain    
T = Trace of Precipitation, MM = Missing Value Source: NWS Daily Summary

Daily Weather History Graph

Daily Weather History Graph

Search for Another Location

Airport or City:

Trip Planner

Search our weather history database for the weather conditions in past years. The results will help you decide how hot, cold, wet, or windy it might be!

Date:

Astronomy

Nov. 04, 2012 Rise Set
Actual Time 7:08 AM PST 4:54 PM PST
Civil Twilight 6:35 AM PST 5:27 PM PST
Nautical Twilight 5:58 AM PST 6:04 PM PST
Astronomical Twilight 5:22 AM PST 6:40 PM PST
Moon 9:34 PM PST (11/4) 12:00 PM PST (11/4)
Length of Visible Light 10h 51m
Length of Day
9h 45m
Waning Gibbous, 71% of the Moon is Illuminated
Nov 4
Waning Gibbous
Nov 6
Last Quarter
Nov 13
New
Nov 20
First Quarter
Nov 28
Full

Hourly Weather History & Observations

Time (PST) Temp. Dew Point Humidity Pressure Visibility Wind Dir Wind Speed Gust Speed Precip Events Conditions
12:53 AM 53.1 °F 50.0 °F 89% 30.12 in 6.0 mi Calm Calm - N/A   Overcast
1:53 AM 53.1 °F 50.0 °F 89% 30.13 in 7.0 mi ESE 4.6 mph - N/A   Overcast
1:19 AM 53.6 °F 50.0 °F 88% 30.13 in 8.0 mi East 4.6 mph - N/A   Overcast
1:53 AM 53.1 °F 50.0 °F 89% 30.13 in 8.0 mi East 4.6 mph - N/A   Overcast
2:22 AM 53.6 °F 50.0 °F 88% 30.13 in 2.0 mi East 4.6 mph - 0.00 in Rain Light Rain
2:53 AM 53.1 °F 51.1 °F 93% 30.13 in 2.5 mi East 3.5 mph - 0.00 in   Overcast
3:21 AM 53.6 °F 51.8 °F 94% 30.13 in 3.0 mi Calm Calm - 0.01 in   Overcast
3:51 AM 53.6 °F 51.8 °F 94% 30.13 in 1.8 mi SE 3.5 mph - 0.01 in Rain Light Rain
3:53 AM 54.0 °F 52.0 °F 93% 30.13 in 1.5 mi SE 4.6 mph - 0.01 in Rain Light Rain
3:57 AM 53.6 °F 51.8 °F 94% 30.13 in 1.2 mi Variable 3.5 mph - 0.01 in Rain Light Rain
4:25 AM 55.4 °F 53.6 °F 94% 30.13 in 1.5 mi SE 4.6 mph - 0.02 in Rain Light Rain
4:37 AM 55.4 °F 53.6 °F 94% 30.13 in 1.8 mi SE 4.6 mph - 0.02 in   Overcast
4:53 AM 55.0 °F 53.1 °F 93% 30.12 in 2.5 mi SE 5.8 mph - 0.03 in   Overcast
5:09 AM 55.4 °F 53.6 °F 94% 30.11 in 3.0 mi SE 6.9 mph - 0.00 in Rain Light Rain
5:53 AM 55.9 °F 53.1 °F 90% 30.11 in 9.0 mi SSE 6.9 mph - 0.00 in   Overcast
6:53 AM 57.0 °F 54.0 °F 89% 30.12 in 9.0 mi Variable 6.9 mph - N/A   Overcast
7:24 AM 57.2 °F 53.6 °F 88% 30.12 in 2.0 mi Variable 6.9 mph - 0.00 in Rain Light Rain
7:30 AM 57.2 °F 55.4 °F 94% 30.12 in 1.2 mi SSE 5.8 mph - 0.00 in   Overcast
7:41 AM 57.2 °F 55.4 °F 94% 30.12 in 1.5 mi SSE 9.2 mph - 0.00 in   Overcast
7:53 AM 57.0 °F 55.0 °F 93% 30.12 in 2.0 mi Variable 5.8 mph - 0.00 in   Overcast
8:04 AM 57.2 °F 55.4 °F 94% 30.13 in 4.0 mi SSE 8.1 mph - N/A   Overcast
8:17 AM 57.2 °F 55.4 °F 94% 30.13 in 2.5 mi Variable 5.8 mph 16.1 mph N/A   Overcast
8:36 AM 57.2 °F 55.4 °F 94% 30.14 in 5.0 mi Variable 5.8 mph 17.3 mph N/A   Overcast
8:53 AM 57.9 °F 55.0 °F 90% 30.14 in 1.8 mi SSE 8.1 mph 18.4 mph N/A   Overcast
9:17 AM 59.0 °F 55.4 °F 88% 30.14 in 2.5 mi SSE 10.4 mph 18.4 mph N/A   Overcast
9:36 AM 59.0 °F 55.4 °F 88% 30.14 in 4.0 mi SSE 6.9 mph 17.3 mph N/A   Overcast
9:53 AM 59.0 °F 57.0 °F 93% 30.14 in 4.0 mi SSE 9.2 mph - N/A   Overcast
10:53 AM 59.0 °F 55.9 °F 90% 30.17 in 2.5 mi South 10.4 mph 20.7 mph N/A   Overcast
10:59 AM 59.0 °F 55.4 °F 88% 30.17 in 1.2 mi South 9.2 mph 20.7 mph N/A   Overcast
11:13 AM 59.0 °F 55.4 °F 88% 30.17 in 0.8 mi South 11.5 mph 19.6 mph N/A   Overcast
11:53 AM 57.9 °F 57.0 °F 97% 30.17 in 0.5 mi South 12.7 mph 24.2 mph 0.02 in Fog , Rain Light Rain
12:09 PM 57.2 °F 55.4 °F 94% 30.17 in 1.0 mi South 12.7 mph 29.9 mph 0.00 in   Overcast
12:24 PM 57.2 °F 55.4 °F 94% 30.17 in 0.8 mi South 12.7 mph 27.6 mph 0.00 in   Overcast
12:46 PM 57.2 °F 55.4 °F 94% 30.16 in 1.0 mi South 11.5 mph - 0.00 in   Overcast
12:53 PM 57.0 °F 55.0 °F 93% 30.15 in 1.0 mi South 10.4 mph 23.0 mph 0.00 in   Overcast
1:07 PM 57.2 °F 55.4 °F 94% 30.15 in 2.0 mi South 9.2 mph 26.5 mph N/A   Overcast
1:24 PM 57.2 °F 53.6 °F 88% 30.16 in 1.5 mi South 11.5 mph 26.5 mph 0.01 in Rain Light Rain
1:53 PM 55.9 °F 54.0 °F 93% 30.17 in 2.5 mi South 16.1 mph 28.8 mph 0.02 in Rain Light Rain
1:57 PM 55.4 °F 53.6 °F 94% 30.17 in 1.2 mi South 16.1 mph 28.8 mph 0.00 in Rain Light Rain
2:06 PM 55.4 °F 53.6 °F 94% 30.15 in 0.5 mi South 10.4 mph 32.2 mph 0.02 in Fog , Rain Light Rain
2:24 PM 55.4 °F 53.6 °F 94% 30.17 in 1.5 mi South 16.1 mph 26.5 mph 0.03 in Rain Light Rain
2:33 PM 55.4 °F 53.6 °F 94% 30.17 in 2.5 mi South 18.4 mph 28.8 mph 0.03 in   Overcast
2:51 PM 55.4 °F 53.6 °F 94% 30.14 in 1.2 mi South 13.8 mph 32.2 mph 0.04 in Rain Light Rain
2:53 PM 55.9 °F 53.1 °F 90% 30.15 in 1.0 mi South 17.3 mph 32.2 mph 0.04 in Rain Light Rain
3:06 PM 55.4 °F 53.6 °F 94% 30.14 in 0.8 mi South 17.3 mph 27.6 mph 0.01 in Rain Light Rain
3:30 PM 55.4 °F 53.6 °F 94% 30.14 in 1.0 mi South 11.5 mph 28.8 mph 0.02 in Rain Light Rain
3:45 PM 55.4 °F 53.6 °F 94% 30.18 in 0.2 mi South 16.1 mph 32.2 mph 0.08 in Fog , Rain Rain
3:53 PM 55.9 °F 53.1 °F 90% 30.18 in 0.5 mi SSW 13.8 mph 28.8 mph 0.10 in Fog , Rain Light Rain
4:07 PM 55.4 °F 53.6 °F 94% 30.18 in 0.2 mi South 10.4 mph 23.0 mph 0.14 in Fog , Rain Heavy Rain
4:19 PM 55.4 °F 53.6 °F 94% 30.16 in 0.8 mi South 11.5 mph 19.6 mph 0.19 in Rain Rain
4:24 PM 55.4 °F 53.6 °F 94% 30.17 in 1.5 mi South 9.2 mph 20.7 mph 0.20 in Rain Light Rain
4:35 PM 55.4 °F 53.6 °F 94% 30.18 in 1.0 mi South 11.5 mph 21.9 mph 0.28 in Rain Heavy Rain
4:37 PM 55.4 °F 53.6 °F 94% 30.18 in 0.8 mi SSW 9.2 mph 21.9 mph N/A Rain Heavy Rain
4:53 PM 55.0 °F 53.1 °F 93% 30.19 in 0.8 mi South 9.2 mph 23.0 mph 0.49 in Rain Heavy Rain
5:17 PM 55.4 °F 53.6 °F 94% 30.19 in 1.2 mi South 9.2 mph 20.7 mph 0.23 in Rain Rain
5:53 PM 55.0 °F 53.1 °F 93% 30.21 in 1.0 mi SSW 6.9 mph 17.3 mph 0.40 in Rain Rain
6:08 PM 55.4 °F 53.6 °F 94% 30.22 in 1.2 mi SSW 8.1 mph - 0.04 in Rain Rain
6:14 PM 55.4 °F 53.6 °F 94% 30.23 in 1.5 mi Variable 5.8 mph - 0.05 in Rain Light Rain
6:23 PM 55.4 °F 53.6 °F 94% 30.23 in 2.0 mi WSW 6.9 mph - 0.05 in Rain Light Rain
6:41 PM 55.4 °F 51.8 °F 88% 30.24 in 3.0 mi NW 6.9 mph - 0.05 in   Overcast
6:53 PM 54.0 °F 52.0 °F 93% 30.25 in 2.5 mi North 4.6 mph - 0.06 in   Overcast
7:02 PM 53.6 °F 51.8 °F 94% 30.23 in 5.0 mi NE 3.5 mph - N/A   Overcast
7:09 PM 53.6 °F 51.8 °F 94% 30.24 in 6.0 mi NE 3.5 mph - N/A   Overcast
7:53 PM 54.0 °F 52.0 °F 93% 30.25 in 5.0 mi SSE 3.5 mph - N/A   Overcast
8:53 PM 54.0 °F 52.0 °F 93% 30.27 in 5.0 mi South 3.5 mph - N/A   Overcast
9:53 PM 52.0 °F 50.0 °F 93% 30.29 in 4.0 mi Calm Calm - N/A   Overcast
10:31 PM 51.8 °F 48.2 °F 88% 30.30 in 1.8 mi Calm Calm - N/A   Scattered Clouds
10:34 PM 51.8 °F 48.2 °F 88% 30.30 in 0.8 mi Calm Calm - N/A   Mostly Cloudy
10:41 PM 51.8 °F 48.2 °F 88% 30.32 in 0.2 mi Calm Calm - N/A Fog Fog
10:53 PM 51.1 °F 48.9 °F 92% 30.32 in 0.2 mi Calm Calm - N/A Fog Fog